Tracking 26935 objects as of 4-Feb-2023
HD Live streaming from Space Station
objects crossing your sky now

STARLINK-4211

Track STARLINK-4211 now!
10-day predictions
STARLINK-4211 is classified as:


NORAD ID: 52873
Int'l Code: 2022-062AV
Perigee: 545.8 km
Apogee: 548.0 km
Inclination: 53.2 °
Period: 95.4 minutes
Semi major axis: 6917 km
RCS: Unknown
Launch date: June 17, 2022
Source: United States (US)
Launch site: AIR FORCE EASTERN TEST RANGE (AFETR)
Your satellite tracking list
Your tracking list is empty




NASA's NSSDC Master Catalog

Two Line Element Set (TLE):
1 52873U 22062AV  23035.29616579  .00000786  00000-0  67458-4 0  9990
2 52873  53.2184  44.1695 0001578  90.1624 269.9549 15.08842874 36057
Source of the keplerian elements: AFSPC